Home > Weather > Banjul > Past weeks

Flag for Gambia Weather for the Past 2 Weeks in Banjul, Gambia

Now
73 °F

Clear.


Feels Like: 76 °F
Forecast: 71 / 86 °F
Wind: 10 mph from East

Location: Banjul / Yundum

Current Time: Feb 10, 2016 at 8:57:31 AM

Latest Report: Feb 10, 2016 at 8:00 AM


Visibility: 6 mi

Pressure: 29.89 "Hg

Humidity: 23%

Dew point: 34 °F

Location of BanjulLocation

Historic Weather in Banjul — Graph

°F

Banjul Temperature Yesterday

Maximum temperature yesterday: 97 °F (at 3:00 PM)
Minimum temperature yesterday: 73 °F (at 5:00 AM)
Average temperature yesterday: 83 °F

High & Low Weather Summary for the Past Weeks

 TemperatureHumidityPressure
High100 °F (Feb 7, 3:00 PM)94% (Jan 29, 6:00 AM)30.01 "Hg (Jan 29, 6:00 AM)
Low63 °F (Feb 4, 5:00 AM)11% (Feb 7, 3:00 PM)29.80 "Hg (Feb 2, 5:00 PM)
Average79 °F38%29.90 "Hg
* Reported Jan 26 8:00 AM — Feb 10 8:00 AM, Banjul, Weather by CustomWeather, © 2016

Note: Actual official high and low records may vary slightly from our data, if they occured in-between our weather recording intervals... More about our weather records

Advertising

Banjul Weather History for the Previous 24 Hours

 ConditionsComfort  
Time TempWeatherWind HumidityBarometerVisibility
8:00 AM
Wed, Feb 10
73 °FClear.10 mph23%29.89 "Hg6 mi
7:00 AM72 °FClear.8 mph29%29.92 "Hg6 mi
6:00 AM72 °FClear.7 mph27%29.92 "Hg6 mi
5:00 AM72 °FClear.9 mph29%29.92 "Hg6 mi
4:00 AM70 °FClear.6 mph35%29.92 "Hg6 mi
3:00 AM72 °FClear.8 mph31%29.92 "Hg6 mi
2:00 AM72 °FClear.6 mph44%29.95 "Hg6 mi
1:00 AM73 °FClear.7 mph44%29.95 "Hg6 mi
12:00 AM73 °FClear.6 mph50%29.98 "Hg6 mi
11:00 PM
Tue, Feb 9
75 °FClear.7 mph39%29.98 "Hg6 mi
10:00 PM77 °FClear.6 mph39%29.95 "Hg6 mi
9:00 PM79 °FClear.7 mph37%29.92 "Hg6 mi
8:00 PM82 °FPassing clouds.6 mph32%29.92 "Hg6 mi
7:00 PM84 °FClear.6 mph33%29.92 "Hg6 mi
6:00 PM93 °FClear.8 mph20%29.92 "Hg6 mi
5:00 PM95 °FClear.10 mph12%29.92 "Hg6 mi
4:00 PM95 °FClear.12 mph15%29.92 "Hg6 mi
3:00 PM97 °FClear.12 mph14%29.92 "Hg6 mi
2:00 PM95 °FClear.14 mph18%29.95 "Hg6 mi
1:00 PM91 °FClear.12 mph17%29.95 "Hg6 mi
12:00 PM90 °FClear.13 mph17%29.98 "Hg6 mi
11:00 AM86 °FClear.13 mph17%29.98 "Hg6 mi
10:00 AM81 °FClear.16 mph26%30.01 "Hg6 mi
9:00 AM75 °FClear.10 mph34%29.98 "Hg6 mi
8:00 AM75 °FClear.10 mph22%29.95 "Hg6 mi
Weather by CustomWeather, © 2016

See weather overviewHow to use our weather pages